COSMOS 1565

Satellite information

Favourite Embed

Satellite Type and Status

PAYLOADIN ORBIT

Key statistics

Satellite COSMOS 1565 at a glance.

Uptime

15017

Days in orbit

Revolutions

≈ 12.6

Per day

Orbit

LEO

Low Earth Orbit

Inclination

74.0

Latest

Satellite identification and parameters

Extended collection of information and parameters for COSMOS 1565.

Object identification

Identified? True

Debris? False

Object name: COSMOS 1565

International designator: 1984-052G

Object number (NORAD): 15004

Object ID (CCSDS): 15004

Country: COMMONWEALTH OF INDEPENDENT STATES (CIS)

Current information (Y/N): Y

RCS size: MEDIUM

Orbital parameters

Period: 114.699 minutes

Inclination: 74.0095 deg

SMA: 7819.891 km

Apoapsis: 1475.641 km

Periapsis: 1407.871 km

RAAN: 208.4373 deg

Eccentricy: 0.0043332

Argument of periapsis: 26.0047 deg

Mean anomaly: 146.9153 deg

Mean motion: 12.55456567 rev/day

Mean motion (dot): 0.00000006 rev/day2

B* drag term: 0.00013645 1/REarth

Two-line elements (TLE)

Creation date: July 8, 2025, 2:27 a.m.

Reference frame: TEME

Reference center: EARTH

Epoch: July 7, 2025, 7:11 p.m. UTC

TLE line 0: 0 COSMOS 1565

TLE line 1: 1 15004U 84052G 25188.79989682 .00000006 00000-0 13645-3 0 9999

TLE line 2: 2 15004 74.0095 208.4373 0043332 26.0047 146.9153 12.55456567883923

Live tracking on map

Real-time ground track for satellite COSMOS 1565.

In-orbit conjunctions

There are no conjunctions computed for COSMOS 1565, at the moment. Check back to stay up to date, as we update our databases every day.

Go to all conjunctions

Associated space launch

Military communications satellites

COSMOS 1565 was lifted into orbit during the mission ‘Kosmos-3M | Strela-1M 281-288’, on board a Kosmos-3M space rocket.

The launch took place on May 28, 1984, 9:52 p.m. from 132/2.

For more information about the launch, click the button.

Launch to space Kosmos-3M | Strela-1M 281-288
Kosmos-3M | Strela-1M 281-288

Agency: N/A

Status: Launch Successful

Launch date: May 28, 1984, 9:52 p.m. UTC

Rocket: Kosmos-3M

Launch pad: 132/2

Location: Plesetsk Cosmodrome, Russian Federation

...

Latest news about this satellite

There are no fresh news available about this satellite. Check back as we update our databases every day.


Newsletter sign-up

Weekly statistics, charts and insights to help you stay on top of the space industry.